TimeBST,TemperatureF,Dew PointF,Humidity,Sea Level PressureIn,VisibilityMPH,Wind Direction,Wind SpeedMPH,Gust SpeedMPH,PrecipitationIn,Events,Conditions,WindDirDegrees,DateUTC
12:50 AM,52,51,95,30.31,3,SW,5.8,,,,Mist,230,2013-10-06 23:50:00
12:50 AM,51.8,51.8,100,30.30,3.1,SW,5.8,-,N/A,,Clear,230,2013-10-06 23:50:00
1:30 AM,51.8,51.8,100,30.30,0.5,SW,5.8,-,N/A,Fog,Fog,230,2013-10-07 00:30:00
1:50 AM,51.8,51.8,100,30.27,0.1,SW,6.9,-,N/A,Fog,Fog,220,2013-10-07 00:50:00
2:50 AM,50.0,50.0,100,30.27,2.5,SSW,5.8,-,N/A,,Clear,210,2013-10-07 01:50:00
3:50 AM,50,50,100,30.29,0,SSW,4.6,,,Fog,Patches of Fog,200,2013-10-07 02:50:00
3:50 AM,50.0,50.0,100,30.27,3.7,SSW,4.6,-,N/A,,Clear,200,2013-10-07 02:50:00
4:50 AM,48.2,46.4,93,30.27,6.2,South,4.6,-,N/A,,Clear,170,2013-10-07 03:50:00
5:50 AM,51.8,51.8,100,30.27,0.5,South,3.5,-,N/A,Fog,Fog,170,2013-10-07 04:50:00
6:50 AM,54,54,99,30.30,0,SSW,8.1,,,Fog,Partial Fog,210,2013-10-07 05:50:00
6:50 AM,53.6,53.6,100,30.27,0.4,SSW,8.1,-,N/A,Fog,Fog,210,2013-10-07 05:50:00
7:50 AM,53.6,53.6,100,30.27,4.3,SSW,5.8,-,N/A,,Mostly Cloudy,210,2013-10-07 06:50:00
8:32 AM,55.4,55.4,100,30.30,6.2,South,4.6,-,N/A,,Mostly Cloudy,190,2013-10-07 07:32:00
8:50 AM,55.4,55.4,100,30.30,6.2,SSW,5.8,-,N/A,,Mostly Cloudy,210,2013-10-07 07:50:00
9:50 AM,57,55,91,30.31,9,SW,8.1,,,,Partly Cloudy,230,2013-10-07 08:50:00
9:50 AM,57.2,55.4,94,30.30,6.2,SW,8.1,-,N/A,,Mostly Cloudy,230,2013-10-07 08:50:00
10:50 AM,59.0,55.4,88,30.30,6.2,SW,10.4,-,N/A,,Scattered Clouds,230,2013-10-07 09:50:00
11:50 AM,60.8,55.4,82,30.30,6.2,SW,9.2,-,N/A,,Scattered Clouds,220,2013-10-07 10:50:00
12:50 PM,61,55,73,30.30,19,West,10.4,,,,Partly Cloudy,260,2013-10-07 11:50:00
12:50 PM,60.8,55.4,82,30.30,6.2,West,10.4,-,N/A,,Mostly Cloudy,260,2013-10-07 11:50:00
1:20 PM,62.6,53.6,72,30.27,6.2,West,9.2,-,N/A,,Mostly Cloudy,260,2013-10-07 12:20:00
1:50 PM,62.6,53.6,72,30.27,6.2,West,8.1,-,N/A,,Mostly Cloudy,270,2013-10-07 12:50:00
2:50 PM,64.4,53.6,68,30.27,6.2,West,4.6,-,N/A,,Mostly Cloudy,270,2013-10-07 13:50:00
3:50 PM,64,53,58,30.26,22,SSW,6.9,,,,Mostly Cloudy,210,2013-10-07 14:50:00
3:50 PM,64.4,53.6,68,30.24,6.2,SSW,6.9,-,N/A,,Mostly Cloudy,210,2013-10-07 14:50:00
4:50 PM,62.6,53.6,72,30.24,6.2,SW,6.9,-,N/A,,Mostly Cloudy,230,2013-10-07 15:50:00
5:50 PM,62.6,53.6,72,30.27,6.2,SSW,5.8,-,N/A,,Overcast,200,2013-10-07 16:50:00
6:50 PM,61,55,75,30.27,19,SSW,6.9,,,,Overcast,200,2013-10-07 17:50:00
6:50 PM,60.8,55.4,82,30.27,6.2,SSW,6.9,-,N/A,,Overcast,200,2013-10-07 17:50:00
7:50 PM,60.8,57.2,88,30.27,6.2,SSW,5.8,-,N/A,,Mostly Cloudy,200,2013-10-07 18:50:00
8:50 PM,57.2,55.4,94,30.27,6.2,SSW,8.1,-,N/A,,Partly Cloudy,210,2013-10-07 19:50:00
9:50 PM,59,56,86,30.29,7,SW,9.2,,,,Mostly Cloudy,230,2013-10-07 20:50:00
9:50 PM,59.0,55.4,88,30.27,6.2,SW,9.2,-,N/A,,Mostly Cloudy,230,2013-10-07 20:50:00
10:50 PM,59.0,55.4,88,30.27,6.2,SSW,8.1,-,N/A,,Overcast,210,2013-10-07 21:50:00
11:50 PM,57.2,55.4,94,30.27,6.2,SSW,8.1,-,N/A,,Partly Cloudy,200,2013-10-07 22:50:00